[[{"header":{"parameterUnit":"m.s-1","parameterCategory":1,"la1":30.2991,"la2":30.254,"lo1":-89.0895,"lo2":-89.0444,"dy":0.0017,"dx":0.0017,"nx":28,"ny":28,"refTime":"2025-04-14T21:00:00:Z","depth":0,"parameterNumber":2,"parameterNumberName":"U-component_of_WINDS"},"data":[0,0,0,0,0,0,0,0,0,0,0,0,0,0,0,0,0,0,0,0,0,0,0,0,0,0,0,0,0,0,0,0,0,0,0,0,0,0,0,0,0,0,0,0,0,0,0,0,0,0,0,0,0,0,0,0,0,0,0.2546,0.2547,0,0.2627,0.2628,0.2629,0.2669,0.2669,0.2669,0.2669,0.2754,0.2756,0.2758,0,0,0,0,0,0,0,0,0,0,0,0,0,0.2428,0.243,0.2546,0.2547,0.2548,0.2627,0.2628,0.2629,0.2669,0.2669,0.2669,0.2669,0.2753,0.2756,0.2758,0,0,0,0,0,0,0,0,0,0,0,0,0,0.2492,0.2431,0.2546,0.2577,0.2581,0.2627,0.2628,0.263,0.2669,0.2669,0.2669,0.2669,0.2752,0.2755,0.2759,0.2779,0,0,0.2769,0.277,0,0,0,0,0,0,0,0,0.2488,0.2496,0.2572,0.2575,0.258,0.2638,0.2618,0.268,0.2669,0.2636,0.2669,0.2669,0.2715,0.2722,0.2737,0.2783,0.2787,0.2769,0.2771,0.2773,0.2774,0,0,0,0,0,0,0,0.2484,0.2493,0.2578,0.2573,0.2578,0.2589,0.2598,0.263,0.2675,0.2639,0.2642,0.2651,0.2717,0.2734,0.2739,0.2788,0.2769,0.2772,0.2774,0.2775,0.2859,0.2859,0,0,0,0,0,0,0.2474,0.2489,0.2576,0.2581,0.2533,0.2591,0.2601,0.2619,0.2674,0.2683,0.2651,0.2652,0.2728,0.2735,0.2742,0.2772,0.2773,0.2776,0.2778,0.2859,0.2859,0.2859,0,0,0,0,0,0,0.2471,0.2481,0.2572,0.2536,0.2548,0.2593,0.2613,0.2621,0.2637,0.2683,0.2692,0.2659,0.2728,0.2738,0.2771,0.2776,0.2777,0.278,0.2858,0.2859,0.2859,0.283,0,0,0,0,0,0,0.2467,0.248,0.2487,0.2535,0.255,0.2598,0.2614,0.2623,0.2643,0.2646,0.2693,0.2701,0.2729,0.2765,0.2774,0.278,0.2783,0.2858,0.2859,0.2859,0.2831,0.283,0.2829,0,0,0,0,0,0.2463,0.2476,0.2488,0.2498,0.256,0.2598,0.2607,0.2638,0.2643,0.2652,0.2682,0.27,0.2774,0.2768,0.2778,0.2786,0.2858,0.2858,0.2859,0.2832,0.283,0.2829,0,0,0,0,0,0,0.2427,0.2483,0.2496,0.2525,0.2556,0.2605,0.2617,0.2635,0.2666,0.2667,0.2705,0.2716,0.2746,0.2769,0.2762,0.281,0.2818,0.282,0.2794,0.2792,0.2791,0.2785,0.2786,0,0,0,0,0,0.2422,0.2448,0.2496,0.2516,0.2531,0.2571,0.2589,0.2611,0.2645,0.2659,0.2691,0.2725,0.2756,0.2775,0.2806,0.2835,0.2847,0.2845,0.2844,0.2843,0.2844,0.2863,0.2864,0.2861,0.2861,0.2861,0,0,0.2413,0.2447,0.246,0.251,0.2537,0.2564,0.2582,0.2609,0.263,0.2663,0.2696,0.2722,0.2762,0.2793,0.2808,0.2813,0.2848,0.2843,0.2842,0.2844,0.2864,0.2864,0.2864,0.2861,0.2861,0.2861,0,0,0.241,0.2437,0.2458,0.2485,0.2527,0.2553,0.2558,0.2605,0.2623,0.2657,0.2683,0.2709,0.2761,0.2789,0.281,0.282,0.2838,0.2829,0.2822,0.284,0.2841,0.2841,0.2846,0.2847,0.2831,0.2831,0.2831,0,0.2393,0.2434,0.2467,0.2493,0.2515,0.2546,0.2569,0.2594,0.2643,0.2658,0.2663,0.2731,0.276,0.2799,0.2802,0.2817,0.2826,0.2824,0.2838,0.2839,0.284,0.2845,0.2847,0.2829,0.283,0.283,0.283,0,0.2412,0.244,0.2452,0.2499,0.2523,0.2547,0.2585,0.2605,0.2625,0.2651,0.2687,0.2723,0.2763,0.2774,0.2794,0.2817,0.2819,0.283,0.2839,0.2838,0.2844,0.2846,0.2827,0.2828,0.2828,0.2829,0,0,0.2387,0.2453,0.2457,0.248,0.2529,0.2552,0.2578,0.2617,0.2634,0.2668,0.2692,0.2737,0.2748,0.2772,0.2796,0.2811,0.2819,0.2821,0.2823,0.2821,0.285,0.2841,0.2843,0.2832,0.2832,0.2833,0.2847,0,0.2391,0.2439,0.2471,0.2508,0.2535,0.2567,0.259,0.2624,0.265,0.2678,0.2707,0.2739,0.2751,0.2766,0.2783,0.2815,0.2826,0.2814,0.2856,0.2857,0.2845,0.2845,0.2836,0.2847,0.2849,0.2849,0.285,0,0.2402,0.2435,0.2474,0.2522,0.2535,0.2555,0.2595,0.2621,0.266,0.2678,0.2706,0.273,0.2762,0.2768,0.2812,0.2803,0.2823,0.2841,0.2843,0.2848,0.2853,0.2852,0.2851,0.2853,0.2853,0.2853,0.2853,0,0.2381,0.2436,0.2467,0.2485,0.2541,0.2555,0.258,0.2619,0.2641,0.2676,0.2691,0.2729,0.275,0.278,0.2814,0.2815,0.2856,0.2864,0.2873,0.2872,0.288,0.2879,0.2884,0.2891,0.2891,0.2891,0.2891,0,0.2383,0.2406,0.2458,0.2477,0.2505,0.2542,0.2569,0.2596,0.2631,0.2657,0.2687,0.2711,0.2755,0.2784,0.2812,0.2845,0.2854,0.2871,0.2878,0.2869,0.2867,0.2882,0.2883,0.2892,0.2892,0.2892,0.2892,0,0.2364,0.24,0.2436,0.2487,0.2501,0.2519,0.2563,0.2584,0.2612,0.2645,0.2655,0.27,0.2737,0.2774,0.2824,0.2843,0.2876,0.2885,0.2863,0.2867,0.2874,0.2873,0.2889,0.2894,0.2897,0.2897,0.2897,0,0.2363,0.2381,0.2435,0.2454,0.2478,0.2509,0.2532,0.257,0.2593,0.2641,0.2656,0.2695,0.2729,0.2787,0.2825,0.2863,0.2874,0.2877,0.288,0.2871,0.2876,0.2875,0.2878,0.2876,0.2876,0.2876,0.2875,0,0.2357,0.2375,0.2407,0.2446,0.2473,0.2505,0.2539,0.2553,0.2598,0.2623,0.2661,0.2687,0.2739,0.2778,0.2822,0.2848,0.287,0.2874,0.2879,0.2869,0.2856,0.2865,0.286,0.2874,0.2874,0.2874,0.2874,0.2874,0.2348,0.2367,0.2408,0.2443,0.2473,0.2504,0.2527,0.2559,0.2591,0.2636,0.2657,0.2696,0.2737,0.2798,0.2824,0.2856,0.2862,0.2868,0.287,0.2871,0.2869,0.2851,0.2864,0.2864,0.2865,0.2865,0.2865,0,0.2345,0.2374,0.2406,0.2453,0.2481,0.2499,0.2538,0.256,0.2594,0.2631,0.2663,0.2709,0.2748,0.2789,0.2831,0.2849,0.286,0.2858,0.2858,0.2864,0.2861,0.2854,0.2849,0.2849,0.2849,0.2849,0.2849,0.2849,0.2347,0.2381,0.2403,0.2453,0.2481,0.2519,0.254,0.257,0.26,0.2649,0.2681,0.2708,0.2748,0.2793,0.283,0.2841,0.2856,0.2852,0.2866,0.2863,0.2864,0.2865,0.2858,0.2854,0.2854,0.2867,0.2867,0.2867]},{"header":{"parameterUnit":"m.s-1","parameterCategory":1,"la1":30.2991,"la2":30.254,"lo1":-89.0895,"lo2":-89.0444,"dy":0.0017,"dx":0.0017,"nx":28,"ny":28,"refTime":"2025-04-14T21:00:00:Z","depth":0,"parameterNumber":3,"parameterNumberName":"V-component_of_WINDS"},"data":[0,0,0,0,0,0,0,0,0,0,0,0,0,0,0,0,0,0,0,0,0,0,0,0,0,0,0,0,0,0,0,0,0,0,0,0,0,0,0,0,0,0,0,0,0,0,0,0,0,0,0,0,0,0,0,0,0,0,-3.6681,-3.6681,0,-3.666,-3.6659,-3.6659,-3.6713,-3.6715,-3.6717,-3.6718,-3.6689,-3.6687,-3.6684,0,0,0,0,0,0,0,0,0,0,0,0,0,-3.6765,-3.6763,-3.6681,-3.6681,-3.6681,-3.666,-3.6659,-3.6659,-3.6713,-3.6715,-3.6717,-3.6719,-3.669,-3.6687,-3.6684,0,0,0,0,0,0,0,0,0,0,0,0,0,-3.6734,-3.6763,-3.6681,-3.6705,-3.6707,-3.666,-3.6659,-3.6659,-3.6713,-3.6715,-3.6718,-3.672,-3.6691,-3.6687,-3.6684,-3.661,0,0,-3.6673,-3.6671,0,0,0,0,0,0,0,0,-3.6736,-3.6731,-3.6702,-3.6704,-3.6706,-3.6692,-3.6678,-3.6642,-3.6712,-3.671,-3.6718,-3.6721,-3.6687,-3.6684,-3.6674,-3.6608,-3.6607,-3.6672,-3.667,-3.6669,-3.6668,0,0,0,0,0,0,0,-3.6738,-3.6732,-3.6672,-3.6701,-3.6704,-3.6716,-3.6714,-3.6672,-3.6684,-3.6711,-3.6715,-3.6712,-3.6689,-3.6678,-3.6674,-3.6607,-3.6673,-3.6669,-3.6667,-3.6666,-3.6482,-3.6479,0,0,0,0,0,0,-3.6738,-3.6734,-3.6673,-3.6672,-3.6728,-3.6712,-3.671,-3.6694,-3.6685,-3.6686,-3.6709,-3.6714,-3.6682,-3.6678,-3.6673,-3.6588,-3.6669,-3.6665,-3.6663,-3.6485,-3.6481,-3.6478,0,0,0,0,0,0,-3.6739,-3.6732,-3.6674,-3.6704,-3.6698,-3.6708,-3.6688,-3.6692,-3.6681,-3.6684,-3.6686,-3.6696,-3.6684,-3.6678,-3.6626,-3.6587,-3.6664,-3.666,-3.6488,-3.6484,-3.648,-3.6415,0,0,0,0,0,0,-3.6742,-3.6732,-3.6705,-3.6703,-3.6696,-3.6628,-3.6686,-3.6689,-3.6675,-3.6681,-3.6672,-3.6673,-3.6686,-3.6631,-3.6623,-3.6584,-3.6658,-3.6491,-3.6486,-3.6481,-3.6421,-3.6409,-3.6399,0,0,0,0,0,-3.6744,-3.6685,-3.6703,-3.6695,-3.6662,-3.6626,-3.6622,-3.664,-3.6672,-3.6644,-3.6647,-3.6673,-3.6593,-3.6626,-3.6616,-3.6576,-3.6494,-3.6487,-3.6481,-3.6425,-3.6411,-3.64,0,0,0,0,0,0,-3.6678,-3.6685,-3.6705,-3.6644,-3.6634,-3.6635,-3.66,-3.6624,-3.6603,-3.6609,-3.6631,-3.6628,-3.6573,-3.6569,-3.6605,-3.6505,-3.6549,-3.6541,-3.6509,-3.6496,-3.6486,-3.6487,-3.6655,0,0,0,0,0,-3.6657,-3.6629,-3.6636,-3.6581,-3.6576,-3.6589,-3.6574,-3.659,-3.6579,-3.6575,-3.6574,-3.6561,-3.6534,-3.6515,-3.649,-3.6421,-3.642,-3.6389,-3.6378,-3.637,-3.6362,-3.6327,-3.6314,-3.6458,-3.6458,-3.6458,0,0,-3.6612,-3.6612,-3.6592,-3.6568,-3.6562,-3.6532,-3.6585,-3.6549,-3.6527,-3.6568,-3.6521,-3.652,-3.6507,-3.6448,-3.6421,-3.6443,-3.6322,-3.6362,-3.6355,-3.6352,-3.632,-3.6306,-3.6294,-3.6454,-3.6455,-3.6455,0,0,-3.6514,-3.6511,-3.6467,-3.6462,-3.6454,-3.6464,-3.6454,-3.6452,-3.6454,-3.6407,-3.6438,-3.6411,-3.6363,-3.6354,-3.6343,-3.6247,-3.627,-3.6238,-3.6181,-3.6148,-3.6137,-3.6127,-3.6093,-3.6081,-3.623,-3.623,-3.623,0,-3.6458,-3.6415,-3.644,-3.6404,-3.6393,-3.6433,-3.6388,-3.6381,-3.6364,-3.6355,-3.6381,-3.6324,-3.6318,-3.6258,-3.6235,-3.6224,-3.6213,-3.6238,-3.6137,-3.6127,-3.6118,-3.6086,-3.6073,-3.6226,-3.6226,-3.6227,-3.6227,0,-3.6347,-3.6317,-3.6282,-3.6269,-3.6254,-3.6213,-3.6231,-3.6213,-3.6231,-3.6238,-3.619,-3.6186,-3.6162,-3.6149,-3.6164,-3.6091,-3.6106,-3.6133,-3.6177,-3.61,-3.6071,-3.6059,-3.622,-3.6222,-3.6223,-3.6224,0,0,-3.6203,-3.6209,-3.6195,-3.6191,-3.6188,-3.6165,-3.6127,-3.6106,-3.6091,-3.6078,-3.6047,-3.6008,-3.6035,-3.6022,-3.6038,-3.6008,-3.5934,-3.604,-3.604,-3.6021,-3.5855,-3.5834,-3.582,-3.5951,-3.5949,-3.5947,-3.5857,0,-3.6108,-3.6045,-3.6068,-3.6003,-3.5977,-3.6017,-3.5984,-3.5978,-3.5985,-3.5962,-3.5969,-3.5941,-3.5978,-3.5972,-3.5944,-3.5949,-3.5901,-3.5956,-3.5921,-3.5919,-3.5923,-3.5805,-3.5781,-3.5696,-3.5845,-3.5843,-3.5842,0,-3.5987,-3.5975,-3.5908,-3.5913,-3.5903,-3.5873,-3.5858,-3.5836,-3.5831,-3.5838,-3.5826,-3.5849,-3.5812,-3.5857,-3.5806,-3.5843,-3.5831,-3.5831,-3.5828,-3.5825,-3.5875,-3.5798,-3.5669,-3.5657,-3.5824,-3.5825,-3.5827,0,-3.589,-3.5856,-3.5813,-3.5808,-3.5813,-3.5791,-3.5791,-3.5789,-3.5777,-3.5763,-3.5755,-3.5736,-3.5725,-3.571,-3.5727,-3.5759,-3.5674,-3.5721,-3.5678,-3.5678,-3.5657,-3.5658,-3.5525,-3.5649,-3.565,-3.565,-3.565,0,-3.578,-3.5738,-3.577,-3.5743,-3.5698,-3.5725,-3.5679,-3.5684,-3.5682,-3.5656,-3.5689,-3.5664,-3.5689,-3.5665,-3.5678,-3.5635,-3.563,-3.5634,-3.5638,-3.5631,-3.563,-3.5622,-3.5628,-3.5647,-3.5647,-3.5648,-3.5649,0,-3.5663,-3.5683,-3.5639,-3.5649,-3.565,-3.5616,-3.5624,-3.5599,-3.561,-3.5577,-3.5571,-3.5587,-3.5562,-3.5579,-3.5552,-3.5561,-3.5505,-3.5517,-3.5508,-3.5511,-3.5468,-3.5472,-3.5324,-3.5307,-3.5442,-3.5441,-3.544,0,-3.5591,-3.5561,-3.5569,-3.5556,-3.5555,-3.5533,-3.5522,-3.5548,-3.5535,-3.5529,-3.5505,-3.5484,-3.5469,-3.5427,-3.5435,-3.5416,-3.5428,-3.5378,-3.5425,-3.542,-3.5428,-3.5429,-3.5427,-3.5367,-3.5366,-3.5364,-3.5363,0,-3.5462,-3.5475,-3.5459,-3.5447,-3.5434,-3.5425,-3.5419,-3.5405,-3.5433,-3.5416,-3.5393,-3.5382,-3.5358,-3.5336,-3.5322,-3.5321,-3.5346,-3.5349,-3.5339,-3.5331,-3.5327,-3.5329,-3.5482,-3.5352,-3.5353,-3.5354,-3.5354,-3.5355,-3.5366,-3.5342,-3.5345,-3.5327,-3.5326,-3.532,-3.5299,-3.5309,-3.5291,-3.5276,-3.5293,-3.5265,-3.5263,-3.5246,-3.5243,-3.5221,-3.5242,-3.5226,-3.5222,-3.5217,-3.5212,-3.5331,-3.5218,-3.5219,-3.5219,-3.5219,-3.522,0,-3.5239,-3.5245,-3.5228,-3.5221,-3.5207,-3.5236,-3.5232,-3.5217,-3.5194,-3.5191,-3.5177,-3.5152,-3.5132,-3.5141,-3.5124,-3.5105,-3.5117,-3.51,-3.5101,-3.5101,-3.5194,-3.5206,-3.5091,-3.5091,-3.5091,-3.5091,-3.5091,-3.5091,-3.5172,-3.5133,-3.5147,-3.5109,-3.5114,-3.509,-3.5085,-3.508,-3.5079,-3.5051,-3.5036,-3.5043,-3.5045,-3.503,-3.5014,-3.5017,-3.5009,-3.4988,-3.4995,-3.5081,-3.5094,-3.5106,-3.5117,-3.4986,-3.4985,-3.4904,-3.4903,-3.4902]}]]